Location: La Chaume-B�nite
(46.1692°N, 3.2932°E)
Time: 15:57:39
(UTC+00:00)

Daily predictions for brighter satellites

Satellite Brightness Start Highest point End
(mag) Time Altitude Azimuth Time Altitude Azimuth Time Altitude Azimuth
Cosmos 1953 2.3 17:15:46 10° S 17:19:49 81° E 17:23:55 10° N
Cosmos 1726 Rocket 3.7 17:16:09 10° S 17:20:25 55° E 17:24:42 10° NNE
Cosmos 1992 Rocket 4.1 17:16:09 10° SSW 17:21:22 90° W 17:26:38 10° NNE
Unknown 4.4 17:17:50 10° W 17:21:48 44° NNW 17:25:47 10° NE
Unknown 4.4 17:18:29 10° W 17:22:28 45° NNW 17:26:28 10° NE
Cosmos 2084 4.0 17:18:06 10° SW 17:22:37 66° NW 17:27:04 10° NE
Unknown 4.4 17:19:00 10° W 17:22:58 44° NNW 17:26:57 10° NE
Cosmos 2285 Rocket 4.3 17:16:37 10° NNW 17:23:04 77° WSW 17:29:27 10° SSE
Meteor 1-16 Rocket 4.4 17:18:25 10° SSE 17:23:43 49° E 17:28:55 10° NNE
Shenzhou-11 Module 2.7 17:21:47 10° WSW 17:24:26 40° S 17:27:04 10° ESE
NOAA 12 4.1 17:20:17 10° SSE 17:25:32 72° ENE 17:30:51 10° N
Unknown 4.5 17:21:59 10° W 17:25:58 43° NNW 17:29:58 10° NE
Cosmos 921 Rocket 3.1 17:22:26 10° S 17:26:53 64° ESE 17:31:19 10° NNE
ATLAS 5 CENTAUR R/B 2.8 17:22:53 10° WSW 17:27:00 42° NW 17:31:39 10° NNE
Cosmos 1908 4.3 17:24:27 10° SE 17:27:40 25° E 17:30:54 10° NE
Cosmos 2278 Rocket 3.0 17:25:49 10° SSE 17:30:42 31° ESE 17:35:38 10° NE
Cosmos 1242 Rocket 2.7 17:30:28 10° N 17:34:06 55° ENE 17:37:42 10° SSE
Cosmos 1844 3.9 17:30:45 10° SSW 17:36:28 81° WNW 17:42:19 10° NNE
Cosmos 1777 Rocket 4.3 17:31:39 10° NNW 17:36:41 46° ENE 17:41:41 10° SE
Cosmos 2058 Rocket 3.1 17:36:44 10° S 17:41:01 59° E 17:45:19 10° NNE
Cosmos 839 Rocket 4.1 17:35:21 10° NNW 17:41:34 78° NE 17:48:36 10° SE
USA 116 4.2 17:42:45 10° NE 17:45:35 28° E 17:48:34 10° SSE
Cosmos 1726 2.1 17:42:05 10° S 17:45:40 59° E 17:49:16 10° NNE
Lacrosse 5 rocket 3.5 17:44:05 10° WNW 17:47:10 24° SW 17:50:23 10° S
CSL-04 Rocket 3.8 17:43:38 10° SE 17:49:01 56° ENE 17:54:23 10° N
Okean-O 3.6 17:49:19 10° S 17:53:38 52° W 17:58:00 10° NNW
Cosmos 292 Rocket 3.7 17:50:46 10° SSW 17:55:30 78° ESE 18:00:16 10° NNE
Cosmos 1328 3.7 17:52:20 10° N 17:56:21 84° E 18:00:17 10° S
COSMO-SKYMED 1 2.5 17:52:19 10° NNE 17:56:41 73° ESE 18:01:01 10° S
Cosmos 1939 Rocket 3.7 17:53:47 10° SE 17:57:18 30° ENE 18:00:51 10° N
ASTEX 1 3.4 17:59:37 10° N 18:04:36 87° W 18:09:35 10° S
Cosmos 1605 Rocket 3.9 17:58:30 10° N 18:04:42 70° E 18:10:47 10° SSE
H-2A R/B 3.6 18:04:37 16° ENE 18:05:22 16° ENE 18:08:33 10° NNE
Cosmos 1833 Rocket 2.7 18:01:47 10° NNW 18:07:21 60° ENE 18:12:53 10° SE
Cosmos 1461 3.0 18:04:09 10° NNW 18:08:09 53° NE 18:11:01 19° ESE
Unknown 3.6 18:07:21 10° NW 18:10:39 45° NNE 18:12:01 28° ENE
Cosmos 1934 Rocket 4.3 18:05:10 10° NNW 18:11:29 73° W 18:17:49 10° S
Meteor 2-10 4.0 18:07:14 10° SSW 18:12:18 81° W 18:17:22 10° N
FALCON 9 DEB 3.8 18:09:15 10° NW 18:12:36 42° NNE 18:13:56 28° ENE
Envisat 3.7 18:08:29 10° S 18:13:28 57° W 18:18:29 10° NNW
Cosmos 1727 Rocket 4.1 18:09:21 10° SSE 18:15:16 51° E 18:21:13 10° NNE
ATLAS 3B R/B 3.8 18:12:38 10° SSE 18:16:54 19° ESE 18:16:54 19° ESE
CZ-2D R/B 3.3 18:14:02 10° SSE 18:17:47 54° ENE 18:21:36 10° N
Cosmos 2084 Rocket 4.3 18:13:43 10° NNW 18:17:47 34° NE 18:19:18 27° ENE
YAOGAN 6 3.2 18:15:27 10° S 18:19:03 60° W 18:22:40 10° NNW
Cosmos 2173 Rocket 4.4 18:17:48 10° N 18:23:37 39° ENE 18:28:10 16° SE
Unknown 3.7 18:20:18 10° NW 18:23:41 44° NNE 18:24:34 35° ENE
CZ-4 R/B 2.2 18:20:05 10° S 18:24:10 55° W 18:28:20 10° NNW
Cosmos 1300 3.2 18:20:52 10° SSE 18:24:21 35° E 18:27:51 10° NNE
CENTAUR R/B 3.6 18:22:40 10° SSE 18:26:01 21° ESE 18:26:01 21° ESE
Lacrosse 5 1.9 18:22:32 10° NW 18:27:34 63° NE 18:29:56 31° ESE
Falcon 9 debris 3.3 18:26:25 10° NW 18:29:50 55° NNE 18:30:26 47° ENE
Abrixas rocket 1.9 18:27:01 10° WSW 18:30:04 76° SSE 18:30:25 64° E
Cosmos 2082 Rocket 2.2 18:28:11 10° NNW 18:33:53 66° ENE 18:37:44 21° SE
DMSP B5D1-3 4.4 18:29:45 10° NNE 18:34:54 74° ESE 18:40:02 10° S
BREEZE M DEB (TANK) 2.8 18:33:28 10° WNW 18:36:00 56° SSW 18:38:41 25° SE
Cosmos 1812 Rocket 3.4 18:32:51 10° S 18:37:14 69° E 18:41:42 10° NNE
Cosmos 1076 Rocket 3.5 18:32:55 10° N 18:37:16 60° ENE 18:39:44 24° SSE
Cosmos 967 Rocket 4.5 18:32:29 10° NNW 18:38:58 74° NE 18:43:04 24° SE
USA 238 DEB 3.6 18:38:44 10° SSW 18:45:23 71° SE 18:51:07 16° NE
USA 238 3.6 18:38:51 10° SSW 18:45:29 71° SE 18:51:10 16° NE
Unknown 4.2 18:42:48 10° WNW 18:45:41 34° SW 18:46:15 31° SSW
Unknown 3.2 18:42:35 10° NW 18:46:02 62° NNE 18:46:02 62° NNE
YAOGAN 1 3.8 18:42:55 10° S 18:47:01 42° W 18:51:09 10° NNW
Cosmos 2100 Rocket 3.9 18:41:47 10° N 18:47:56 62° ENE 18:53:06 15° SSE
Gbstr 26 Del rocket 4.1 18:45:44 10° WNW 18:51:56 79° SSW 18:55:35 32° SE
Ariane Rocket 3.0 18:50:55 10° SSE 18:56:01 80° WSW 19:01:10 10° NNW
Shenzhou-11 Module 4.2 18:57:06 10° WSW 18:58:27 20° SW 18:58:27 20° SW
In-Cosmos 22 Rocket 4.0 18:54:21 10° N 18:59:43 64° ENE 19:01:10 46° SE
SJ-11-01 4.1 19:04:37 69° E 19:04:47 70° ENE 19:09:27 10° N
Cosmos 2058 2.8 19:01:05 10° N 19:05:13 84° NNE 19:05:13 84° NNE
Cosmos 2016 Rocket 4.0 19:01:50 10° N 19:08:01 57° ENE 19:09:06 51° ESE
HJ-1C 4.5 19:09:59 43° NW 19:09:59 43° NW 19:12:32 10° NNW
NOSS 3-2 (A) 3.3 19:04:02 10° SSW 19:09:48 84° SE 19:13:02 31° NE
ATLAS 5 CENTAUR R/B 4.3 19:10:27 10° NW 19:13:04 14° NNW 19:15:52 10° NNE
Cosmos 2278 Rocket 3.2 19:09:10 10° SW 19:14:36 46° WNW 19:20:05 10° NNE
Cosmos 1937 Rocket 4.1 19:09:57 10° NNW 19:13:53 42° NNE 19:13:53 42° NNE
Cosmos 2297 3.6 19:10:16 10° SSW 19:15:54 67° ESE 19:15:55 67° ESE
Cosmos 990 Rocket 4.0 19:13:37 10° NNW 19:18:18 63° NNE 19:18:18 63° NNE
MOS 1 4.5 19:24:07 30° S 19:27:00 69° WSW 19:32:40 10° NNW
SPOT 3 Rocket 3.6 19:27:56 65° N 19:27:56 65° N 19:32:28 10° NNW
BREEZE-M DEB (TANK) 3.0 19:21:04 10° WSW 19:28:04 65° WSW 19:28:04 65° WSW
Cosmos 2061 Rocket 3.9 19:26:42 10° N 19:32:59 90° ENE 19:34:04 64° S
NOSS 3-2 (C) 3.2 19:28:27 10° SSW 19:34:07 81° SE 19:34:07 81° SE
SJ 16-02 3.0 19:30:30 10° NNW 19:32:27 25° N 19:32:27 25° N
ARGOS 3.6 19:42:35 53° N 19:42:35 53° N 19:46:42 10° NNW
Cosmos 1459 Rocket 4.5 19:37:09 10° NNW 19:43:13 58° W 19:47:27 21° SSW
ADEOS Rocket 3.3 19:36:10 10° NNE 19:43:56 80° ESE 19:51:06 10° S
H-2A R/B 2.6 19:45:15 56° NNW 19:45:15 56° NNW 19:49:28 10° NNW
Resurs 01 Rocket 4.2 19:56:23 13° N 19:56:23 13° N 19:56:50 10° N
Cosmos 1898 Rocket 4.5 19:57:02 10° NNW 20:01:14 45° WNW 20:01:14 45° WNW
ATLAS CENTAUR R/B 4.3 20:00:06 10° NNW 20:00:38 12° N 20:00:38 12° N
ATLAS 3B R/B 3.4 20:00:11 10° SW 20:04:15 40° SW 20:04:15 40° SW
Lacrosse 5 3.7 20:05:55 10° WNW 20:09:09 27° WSW 20:09:09 27° WSW
CENTAUR R/B 3.8 20:10:44 10° SW 20:13:19 28° SW 20:13:19 28° SW
Cosmos 2082 Rocket 4.4 20:13:19 10° NW 20:17:24 21° W 20:19:38 16° SW
